Home > Weather > Regina > Past weeks

Flag for Canada Past Weather in Regina, Saskatchewan, Canada — Yesterday and Last 2 Weeks

Now
54 °F

Mostly cloudy.


Feels Like: 49 °F
Forecast: 51 / 59 °F
Wind: 14 mph from Northwest

Location: Regina Weather Station

Current Time: Aug 24, 2016 at 12:36:02 AM

Latest Report: Aug 24, 2016 at 12:00 AM


Visibility: 15 mi

Pressure: 29.85 "Hg (27.85 "Hg at 577m altitude)

Humidity: 100%

Dew Point: 54 °F

Location of ReginaLocation

Past Weather in Regina — Graph

°F

Regina Temperature Yesterday

Maximum temperature yesterday: 70 °F (at 3:00 PM)
Minimum temperature yesterday: 48 °F (at 1:00 AM)
Average temperature yesterday: 58 °F

High & Low Weather Summary for the Past Weeks

 TemperatureHumidityPressure
High90 °F (Aug 21, 4:00 PM)100% (Aug 8, 11:46 PM)30.18 "Hg (Aug 8, 11:46 PM)
Low45 °F (Aug 19, 5:00 AM)21% (Aug 21, 4:00 PM)29.54 "Hg (Aug 22, 11:00 AM)
Average63 °F72%29.94 "Hg
* Reported Aug 8 11:00 PM — Aug 23 11:00 PM, Regina, Weather by CustomWeather, © 2016

Note: Actual official high and low records may vary slightly from our data, if they occured in-between our weather recording intervals... More about our weather records

Advertising

Regina Weather History for the Previous 24 Hours

Scroll right to see more
 ConditionsComfort  
Time TempWeatherWind HumidityBarometerVisibility
11:00 PM
Tue, Aug 23
54 °FPartly cloudy.15 mph94%29.83 "Hg15 mi
10:00 PM54 °FPassing clouds.8 mph94%29.83 "Hg15 mi
9:00 PM55 °FPassing clouds.13 mph94%29.82 "Hg15 mi
8:00 PM61 °FPassing clouds.8 mph63%29.81 "Hg15 mi
7:00 PM63 °FPartly sunny.12 mph59%29.79 "Hg15 mi
6:00 PM66 °FScattered showers. Partly sunny.16 mph49%29.80 "Hg15 mi
5:00 PM64 °FPartly sunny.14 mph52%29.80 "Hg15 mi
4:00 PM70 °FBroken clouds.15 mph46%29.78 "Hg15 mi
3:00 PM70 °FBroken clouds.20 mph43%29.78 "Hg15 mi
2:00 PM66 °FPartly sunny.16 mph49%29.79 "Hg15 mi
1:00 PM66 °FPartly sunny.21 mph49%29.79 "Hg15 mi
12:00 PM64 °FPartly sunny.21 mph52%29.80 "Hg15 mi
11:00 AM66 °FBroken clouds.21 mph49%29.79 "Hg15 mi
10:00 AM61 °FPartly sunny.16 mph59%29.80 "Hg15 mi
9:00 AM57 °FBroken clouds.9 mph72%29.79 "Hg15 mi
8:00 AM55 °FPartly sunny.7 mph77%29.79 "Hg15 mi
7:00 AM52 °FPartly sunny.8 mph88%29.77 "Hg15 mi
6:00 AM50 °FMostly cloudy.6 mph88%29.76 "Hg15 mi
5:00 AM52 °FPassing clouds.7 mph82%29.73 "Hg15 mi
4:00 AM54 °FPassing clouds.10 mph77%29.71 "Hg15 mi
3:00 AM50 °FOvercast.2 mph88%29.72 "Hg15 mi
2:00 AM52 °FPassing clouds.2 mph77%29.70 "Hg15 mi
1:00 AM48 °FPassing clouds.7 mph87%29.69 "Hg15 mi
12:00 AM52 °FPassing clouds.6 mph77%29.67 "Hg12 mi
Weather by CustomWeather, © 2016

See weather overviewHow to use our weather pages